H1 CPF 2 NER 2023 8 9 9 221 01 glonass138 H2 1805301 9138 43508 2023 8 9 0 0 0 2023 8 12 23 45 0 900 1 1 0 0 0 1 H9 10 0 60165 0.00000 0 -15015504.074 -2681634.248 20460594.055 10 0 60165 900.00000 0 -12730220.399 -3932640.879 21764716.846 10 0 60165 1800.00000 0 -10432808.408 -5425381.055 22646706.335 10 0 60165 2700.00000 0 -8188087.942 -7134606.104 23089393.261 10 0 60165 3600.00000 0 -6056015.341 -9023579.551 23084111.025 10 0 60165 4500.00000 0 -4089358.839 -11045419.776 22630868.678 10 0 60165 5400.00000 0 -2331686.447 -13144881.772 21738357.945 10 0 60165 6300.00000 0 -815749.373 -15260505.314 20423793.561 10 0 60165 7200.00000 0 437672.200 -17327041.381 18712589.258 10 0 60165 8100.00000 0 1420413.279 -19278056.740 16637874.681 10 0 60165 9000.00000 0 2137031.583 -21048608.756 14239861.558 10 0 60165 9900.00000 0 2604374.202 -22577878.983 11565070.462 10 0 60165 10800.00000 0 2850621.867 -23811655.291 8665432.330 10 0 60165 11700.00000 0 2913851.403 -24704558.139 5597281.626 10 0 60165 12600.00000 0 2840177.407 -25221916.865 2420260.537 10 0 60165 13500.00000 0 2681552.279 -25341216.331 -803844.365 10 0 60165 14400.00000 0 2493318.466 -25053052.159 -4012309.894 10 0 60165 15300.00000 0 2331617.560 -24361553.538 -7142704.117 10 0 60165 16200.00000 0 2250767.158 -23284255.132 -10134109.501 10 0 60165 17100.00000 0 2300717.908 -21851423.048 -12928316.508 10 0 60165 18000.00000 0 2524699.730 -20104863.091 -15470963.409 10 0 60165 18900.00000 0 2957158.086 -18096261.483 -17712599.367 10 0 60165 19800.00000 0 3622068.715 -15885128.022 -19609649.568 10 0 60165 20700.00000 0 4531702.968 -13536428.315 -21125263.387 10 0 60165 21600.00000 0 5685896.627 -11118004.665 -22230029.156 10 0 60165 22500.00000 0 7071853.631 -8697893.665 -22902542.001 10 0 60165 23400.00000 0 8664493.444 -6341652.661 -23129814.217 10 0 60165 24300.00000 0 10427327.866 -4109806.338 -22907520.885 10 0 60165 25200.00000 0 12313830.855 -2055519.301 -22240076.611 10 0 60165 26100.00000 0 14269244.246 -222590.755 -21140542.536 10 0 60165 27000.00000 0 16232744.080 1356146.414 -19630365.930 10 0 60165 27900.00000 0 18139877.238 2659956.901 -17738957.778 10 0 60165 28800.00000 0 19925166.737 3680819.108 -15503116.823 10 0 60165 29700.00000 0 21524777.086 4423502.184 -12966311.342 10 0 60165 30600.00000 0 22879128.528 4905102.609 -10177832.616 10 0 60165 31500.00000 0 23935351.092 5154061.503 -7191836.547 10 0 60165 32400.00000 0 24649476.045 5208705.496 -4066291.995 10 0 60165 33300.00000 0 24988273.299 5115373.931 -861856.226 10 0 60165 34200.00000 0 24930658.054 4926212.362 2359300.669 10 0 60165 35100.00000 0 24468608.009 4696726.216 5534699.553 10 0 60165 36000.00000 0 23607552.893 4483198.425 8602760.920 10 0 60165 36900.00000 0 22366220.110 4340080.381 11503995.064 10 0 60165 37800.00000 0 20775942.961 4317466.532 14182150.871 10 0 60165 38700.00000 0 18879460.211 4458759.299 16585301.279 10 0 60165 39600.00000 0 16729256.887 4798622.871 18666844.785 10 0 60165 40500.00000 0 14385515.054 5361312.299 20386404.133 10 0 60165 41400.00000 0 11913759.363 6159448.566 21710605.391 10 0 60165 42300.00000 0 9382294.606 7193291.751 22613722.853 10 0 60165 43200.00000 0 6859540.976 8450543.675 23078177.793 10 0 60165 44100.00000 0 4411376.819 9906689.513 23094881.677 10 0 60165 45000.00000 0 2098598.317 11525865.429 22663417.242 10 0 60165 45900.00000 0 -25399.245 13262217.531 21792053.685 10 0 60165 46800.00000 0 -1916623.109 15061696.894 20497595.148 10 0 60165 47700.00000 0 -3542084.940 16864217.080 18805064.636 10 0 60165 48600.00000 0 -4880936.821 18606085.242 16747228.545 10 0 60165 49500.00000 0 -5925094.410 20222606.017 14363969.942 10 0 60165 50400.00000 0 -6679321.504 21650749.739 11701521.809 10 0 60165 51300.00000 0 -7160772.844 22831773.212 8811574.264 10 0 60165 52200.00000 0 -7398014.726 23713682.788 5750272.521 10 0 60165 53100.00000 0 -7429565.074 24253435.552 2577124.864 10 0 60165 54000.00000 0 -7302015.210 24418785.158 -646158.003 10 0 60165 54900.00000 0 -7067813.417 24189693.519 -3856869.200 10 0 60165 55800.00000 0 -6782805.021 23559247.828 -6992533.204 10 0 60165 56700.00000 0 -6503634.248 22534043.326 -9992129.861 10 0 60165 57600.00000 0 -6285119.082 21134014.899 -12797290.015 10 0 60165 58500.00000 0 -6177711.537 19391724.080 -15353438.502 10 0 60165 59400.00000 0 -6225152.031 17351131.159 -17610861.468 10 0 60165 60300.00000 0 -6462418.120 15065903.922 -19525676.715 10 0 60165 61200.00000 0 -6914055.187 12597334.068 -21060687.921 10 0 60165 62100.00000 0 -7592960.188 10011948.730 -22186106.197 10 0 60165 63000.00000 0 -8499670.248 7378917.093 -22880125.292 10 0 60165 63900.00000 0 -9622186.347 4767360.412 -23129339.757 10 0 60165 64800.00000 0 -10936339.711 2243677.380 -22928998.648 10 0 60165 65700.00000 0 -12406685.643 -131004.237 -22283090.484 10 0 60165 66600.00000 0 -13987887.359 -2303144.368 -21204258.462 10 0 60165 67500.00000 0 -15626531.892 -4228780.461 -19713548.110 10 0 60165 68400.00000 0 -17263302.090 -5875108.931 -17839992.636 10 0 60165 69300.00000 0 -18835413.839 -7221593.887 -15620044.290 10 0 60165 70200.00000 0 -20279216.546 -8260558.663 -13096862.872 10 0 60165 71100.00000 0 -21532848.155 -8997237.303 -10319475.227 10 0 60165 72000.00000 0 -22538833.539 -9449285.607 -7341822.023 10 0 60165 72900.00000 0 -23246517.532 -9645774.018 -4221710.292 10 0 60165 73800.00000 0 -23614230.719 -9625706.131 -1019692.037 10 0 60165 74700.00000 0 -23611097.231 -9436126.462 2202109.312 10 0 60165 75600.00000 0 -23218408.797 -9129898.186 5381201.805 10 0 60165 76500.00000 0 -22430507.411 -8763245.286 8455933.939 10 0 60165 77400.00000 0 -21255139.547 -8393163.219 11366686.275 10 0 60165 78300.00000 0 -19713266.867 -8074807.634 14057022.796 10 0 60165 79200.00000 0 -17838341.036 -7858971.334 16474779.998 10 0 60165 80100.00000 0 -15675072.437 -7789755.849 18573072.996 10 0 60165 81000.00000 0 -13277743.572 -7902535.730 20311199.717 10 0 60165 81900.00000 0 -10708136.604 -8222301.295 21655426.243 10 0 60165 82800.00000 0 -8033160.381 -8762449.815 22579638.662 10 0 60165 83700.00000 0 -5322274.573 -9524076.383 23065849.281 10 0 60165 84600.00000 0 -2644816.759 -10495795.009 23104547.700 10 0 60165 85500.00000 0 -67342.403 -11654098.469 22694890.008 10 0 60166 0.00000 0 2348912.743 -12964242.960 21844722.287 10 0 60166 900.00000 0 4550344.625 -14381622.595 20570436.919 10 0 60166 1800.00000 0 6492968.754 -15853575.759 18896664.933 10 0 60166 2700.00000 0 8144006.197 -17321551.246 16855807.883 10 0 60166 3600.00000 0 9482998.777 -18723542.676 14487418.319 10 0 60166 4500.00000 0 10502408.627 -19996690.388 11837439.505 10 0 60166 5400.00000 0 11207677.066 -21079941.729 8957318.355 10 0 60166 6300.00000 0 11616740.679 -21916657.723 5903008.229 10 0 60166 7200.00000 0 11759025.324 -22457055.888 2733880.742 10 0 60166 8100.00000 0 11673960.953 -22660385.403 -488432.141 10 0 60166 9000.00000 0 11409080.639 -22496741.846 -3701242.747 10 0 60166 9900.00000 0 11017784.983 -21948443.751 -6842034.833 10 0 60166 10800.00000 0 10556867.483 -21010911.750 -9849688.404 10 0 60166 11700.00000 0 10083906.744 -19693012.142 -12665677.343 10 0 60166 12600.00000 0 9654637.052 -18016849.574 -15235215.535 10 0 60166 13500.00000 0 9320409.722 -16017016.917 -17508328.385 10 0 60166 14400.00000 0 9125853.572 -13739333.464 -19440828.316 10 0 60166 15300.00000 0 9106834.176 -11239124.220 -20995174.997 10 0 60166 16200.00000 0 9288798.642 -8579112.299 -22141203.633 10 0 60166 17100.00000 0 9685576.041 -5827012.500 -22856707.488 10 0 60166 18000.00000 0 10298684.126 -3052926.495 -23127863.832 10 0 60166 18900.00000 0 11117171.505 -326647.980 -22949495.720 10 0 60166 19800.00000 0 12118001.712 2285010.438 -22325165.187 10 0 60166 20700.00000 0 13266962.871 4720758.009 -21267096.699 10 0 60166 21600.00000 0 14520064.555 6927129.545 -19795932.880 10 0 60166 22500.00000 0 15825363.059 8860457.422 -17940327.651 10 0 60166 23400.00000 0 17125138.374 10488431.187 -15736384.903 10 0 60166 24300.00000 0 18358331.492 11791181.414 -13226953.755 10 0 60166 25200.00000 0 19463139.718 12761844.306 -10460794.067 10 0 60166 26100.00000 0 20379661.090 13406585.198 -7491628.408 10 0 60166 27000.00000 0 21052476.870 13744081.712 -4377098.858 10 0 60166 27900.00000 0 21433063.702 13804489.842 -1177648.839 10 0 60166 28800.00000 0 21481934.076 13627937.784 2044648.286 10 0 60166 29700.00000 0 21170415.153 13262612.064 5227291.133 10 0 60166 30600.00000 0 20481991.121 12762517.387 8308559.440 10 0 60166 31500.00000 0 19413152.517 12185005.237 11228707.044 10 0 60166 32400.00000 0 17973716.565 11588175.689 13931115.726 10 0 60166 33300.00000 0 16186604.584 11028262.043 16363387.884 10 0 60166 34200.00000 0 14087085.180 10557108.434 18478357.224 10 0 60166 35100.00000 0 11721513.961 10219846.443 20234998.424 10 0 60166 36000.00000 0 9145621.370 10052868.335 21599218.761 10 0 60166 36900.00000 0 6422418.825 10082182.084 22544516.866 10 0 60166 37800.00000 0 3619809.013 10322217.357 23052496.400 10 0 60166 38700.00000 0 807998.300 10775132.950 23113224.958 10 0 60166 39600.00000 0 -1943182.541 11430655.280 22725431.360 10 0 60166 40500.00000 0 -4566939.334 12266455.557 21896537.257 10 0 60166 41400.00000 0 -7002047.849 13249050.835 20642521.954 10 0 60166 42300.00000 0 -9195155.158 14335192.260 18987622.305 10 0 60166 43200.00000 0 -11102754.014 15473683.389 16963872.532 10 0 60166 44100.00000 0 -12692748.566 16607553.215 14610491.839 10 0 60166 45000.00000 0 -13945546.398 17676493.312 11973130.735 10 0 60166 45900.00000 0 -14854631.511 18619456.941 9102989.788 10 0 60166 46800.00000 0 -15426594.449 19377310.703 6055827.347 10 0 60166 47700.00000 0 -15680618.554 19895426.528 2890875.266 10 0 60166 48600.00000 0 -15647444.341 20126103.853 -330316.194 10 0 60166 49500.00000 0 -15367856.159 20030718.700 -3545081.374 10 0 60166 50400.00000 0 -14890755.760 19581507.617 -6690865.920 10 0 60166 51300.00000 0 -14270905.062 18762909.838 -9706452.375 10 0 60166 52200.00000 0 -13566434.576 17572409.747 -12533159.777 10 0 60166 53100.00000 0 -12836223.981 16020842.973 -15115992.880 10 0 60166 54000.00000 0 -12137266.669 14132152.314 -17404717.842 10 0 60166 54900.00000 0 -11522130.603 11942603.033 -19354842.869 10 0 60166 55800.00000 0 -11036623.496 9499489.999 -20928484.459 10 0 60166 56700.00000 0 -10717761.312 6859390.544 -22095102.434 10 0 60166 57600.00000 0 -10592125.988 4086035.896 -22832089.805 10 0 60166 58500.00000 0 -10674681.486 1247889.880 -23125206.513 10 0 60166 59400.00000 0 -10968097.735 -1584464.385 -22968849.276 10 0 60166 60300.00000 0 -11462610.462 -4341021.401 -22366153.020 10 0 60166 61200.00000 0 -12136422.274 -6955022.134 -21328922.550 10 0 60166 62100.00000 0 -12956627.620 -9365484.601 -19877396.359 10 0 60166 63000.00000 0 -13880622.257 -11519492.005 -18039847.543 10 0 60166 63900.00000 0 -14857937.603 -13374144.377 -15852029.839 10 0 60166 64800.00000 0 -15832422.563 -14898093.935 -13356479.664 10 0 60166 65700.00000 0 -16744680.922 -16072601.643 -10601687.697 10 0 60166 66600.00000 0 -17534661.643 -16892072.487 -7641156.099 10 0 60166 67500.00000 0 -18144293.047 -17364048.680 -4532359.607 10 0 60166 68400.00000 0 -18520049.973 -17508662.670 -1335630.623 10 0 60166 69300.00000 0 -18615345.825 -17357574.260 1887010.038 10 0 60166 70200.00000 0 -18392648.727 -16952437.732 5073054.069 10 0 60166 71100.00000 0 -17825232.630 -16342964.406 8160714.986 10 0 60166 72000.00000 0 -16898489.442 -15584662.841 11090122.432 10 0 60166 72900.00000 0 -15610746.694 -14736352.259 13804478.465 10 0 60166 73800.00000 0 -13973555.837 -13857554.000 16251153.749 10 0 60166 74700.00000 0 -12011438.367 -13005870.747 18382702.747 10 0 60166 75600.00000 0 -9761099.449 -12234463.543 20157778.799 10 0 60166 76500.00000 0 -7270140.723 -11589732.320 21541931.933 10 0 60166 77400.00000 0 -4595324.687 -11109297.101 22508274.515 10 0 60166 78300.00000 0 -1800461.488 -10820364.369 23038002.330 10 0 60166 79200.00000 0 1045995.538 -10738547.077 23120761.341 10 0 60166 80100.00000 0 3873547.131 -10867187.933 22754853.068 10 0 60166 81000.00000 0 6612331.750 -11197214.716 21947274.431 10 0 60166 81900.00000 0 9195785.470 -11707534.266 20713590.769 10 0 60166 82800.00000 0 11563168.607 -12365949.383 19077643.748 10 0 60166 83700.00000 0 13661854.883 -13130560.959 17071098.867 10 0 60166 84600.00000 0 15449288.372 -13951597.239 14732840.289 10 0 60166 85500.00000 0 16894526.925 -14773593.903 12108223.721 10 0 60167 0.00000 0 17979307.697 -15537833.495 9248201.279 10 0 60167 900.00000 0 18698590.747 -16184941.838 6208333.099 10 0 60167 1800.00000 0 19060556.640 -16657530.522 3047708.562 10 0 60167 2700.00000 0 19086060.202 -16902774.580 -172206.919 10 0 60167 3600.00000 0 18807562.266 -16874814.324 -3388772.936 10 0 60167 4500.00000 0 18267585.561 -16536879.035 -6539400.243 10 0 60167 5400.00000 0 17516760.555 -15863041.251 -9562777.029 10 0 60167 6300.00000 0 16611544.642 -14839526.132 -12400070.398 10 0 60167 7200.00000 0 15611712.030 -13465519.331 -14996078.637 10 0 60167 8100.00000 0 14577721.370 -11753438.100 -17300311.025 10 0 60167 9000.00000 0 13568073.187 -9728653.283 -19267973.605 10 0 60167 9900.00000 0 12636769.358 -7428673.112 -20860841.393 10 0 60167 10800.00000 0 11830982.251 -4901822.515 -22048000.141 10 0 60167 11700.00000 0 11189031.858 -2205472.778 -22806443.514 10 0 60167 12600.00000 0 10738755.929 596104.766 -23121514.597 10 0 60167 13500.00000 0 10496341.242 3434171.799 -22987183.835 10 0 60167 14400.00000 0 10465664.428 6238141.897 -22406158.687 10 0 60167 15300.00000 0 10638169.279 8938276.677 -21389823.550 10 0 60167 16200.00000 0 10993284.751 11468347.758 -19958011.662 10 0 60167 17100.00000 0 11499365.274 13768154.670 -18138613.820 10 0 60167 18000.00000 0 12115113.025 15785794.950 -15967031.786 10 0 60167 18900.00000 0 12791421.692 17479593.086 -13485487.110 10 0 60167 19800.00000 0 13473563.633 18819609.280 -10742198.798 10 0 60167 20700.00000 0 14103627.970 19788666.401 -7790445.795 10 0 60167 21600.00000 0 14623106.663 20382853.683 -4687532.412 10 0 60167 22500.00000 0 14975519.394 20611487.496 -1493676.743 10 0 60167 23400.00000 0 15108966.531 20496532.148 1729156.349 10 0 60167 24300.00000 0 14978502.408 20071506.188 4918455.050 10 0 60167 25200.00000 0 14548228.766 19379921.152 8012369.974 10 0 60167 26100.00000 0 13793019.934 18473319.076 10950909.689 10 0 60167 27000.00000 0 12699806.760 17408991.774 13677099.383 10 0 60167 27900.00000 0 11268364.766 16247477.956 16138080.511 10 0 60167 28800.00000 0 9511572.719 15049943.360 18286130.456 10 0 60167 29700.00000 0 7455129.764 13875553.708 20079582.995 10 0 60167 30600.00000 0 5136741.764 12778950.346 21483632.285 10 0 60167 31500.00000 0 2604809.444 11807934.055 22471005.371 10 0 60167 32400.00000 0 -83328.542 11001453.618 23022490.669 10 0 60167 33300.00000 0 -2863526.125 10387983.088 23127312.521 10 0 60167 34200.00000 0 -5667246.979 9984355.461 22783344.653 10 0 60167 35100.00000 0 -8424169.423 9795101.607 21997158.221 10 0 60167 36000.00000 0 -11064872.348 9812322.275 20783903.024 10 0 60167 36900.00000 0 -13523491.660 10016098.908 19167023.448 10 0 60167 37800.00000 0 -15740237.745 10375426.471 17177813.705 10 0 60167 38700.00000 0 -17663669.753 10849629.652 14854819.953 10 0 60167 39600.00000 0 -19252632.177 11390203.285 12243099.865 10 0 60167 40500.00000 0 -20477772.973 11942999.807 9393353.175 10 0 60167 41400.00000 0 -21322579.613 12450671.533 6360939.407 10 0 60167 42300.00000 0 -21783889.506 12855264.373 3204801.617 10 0 60167 43200.00000 0 -21871853.270 13100852.746 -13682.845 10 0 60167 44100.00000 0 -21609352.432 13136103.330 -3231901.832 10 0 60167 45000.00000 0 -21030896.321 12916657.975 -6387233.988 10 0 60167 45900.00000 0 -20181045.127 12407233.580 -9418275.676 10 0 60167 46800.00000 0 -19112426.323 11583348.663 -12266044.310 10 0 60167 47700.00000 0 -17883429.005 10432602.238 -14875133.632 10 0 60167 48600.00000 0 -16555674.324 8955449.705 -17194797.627 10 0 60167 49500.00000 0 -15191369.587 7165441.894 -19179941.357 10 0 60167 50400.00000 0 -13850658.247 5088916.262 -20791999.152 10 0 60167 51300.00000 0 -12589077.907 2764152.468 -21999683.081 10 0 60167 52200.00000 0 -11455233.417 240027.111 -22779587.454 10 0 60167 53100.00000 0 -10488782.766 -2425776.544 -23116638.138 10 0 60167 54000.00000 0 -9718819.840 -5168929.506 -23004378.595 10 0 60167 54900.00000 0 -9162721.145 -7920898.977 -22445087.808 10 0 60167 55800.00000 0 -8825503.884 -10611569.986 -21449728.472 10 0 60167 56700.00000 0 -8699721.134 -13171938.172 -20037727.024 10 0 60167 57600.00000 0 -8765897.309 -15536762.395 -18236590.206 10 0 60167 58500.00000 0 -8993484.440 -17647067.540 -16081365.861 10 0 60167 59400.00000 0 -9342298.001 -19452394.278 -13613958.609 10 0 60167 60300.00000 0 -9764370.971 -20912703.109 -10882313.640 10 0 60167 61200.00000 0 -10206147.333 -21999854.340 -7939484.504 10 0 60167 62100.00000 0 -10610922.056 -22698603.400 -4842602.918 10 0 60167 63000.00000 0 -10921424.247 -23007071.065 -1651770.509 10 0 60167 63900.00000 0 -11082434.275 -22936670.010 1571105.962 10 0 60167 64800.00000 0 -11043324.186 -22511491.846 4763513.322 10 0 60167 65700.00000 0 -10760414.086 -21767181.244 7863541.443 10 0 60167 66600.00000 0 -10199044.861 -20749345.117 10811079.997 10 0 60167 67500.00000 0 -9335279.575 -19511564.155 13548979.473 10 0 60167 68400.00000 0 -8157161.441 -18113090.388 16024154.234 10 0 60167 69300.00000 0 -6665474.821 -16616327.445 18188606.597 10 0 60167 70200.00000 0 -4873976.387 -15084198.927 20000352.600 10 0 60167 71100.00000 0 -2809085.609 -13577514.764 21424232.127 10 0 60167 72000.00000 0 -509046.134 -12152445.328 22432588.199 10 0 60167 72900.00000 0 1977408.525 -10858208.381 23005802.829 10 0 60167 73800.00000 0 4592831.098 -9735065.017 23132679.368 10 0 60167 74700.00000 0 7273206.257 -8812707.892 22810664.029 10 0 60167 75600.00000 0 9950378.375 -8109108.775 22045902.149 10 0 60167 76500.00000 0 12554661.989 -7629873.391 20853127.599 10 0 60167 77400.00000 0 15017527.704 -7368130.579 19255386.777 10 0 60167 78300.00000 0 17274252.845 -7304960.463 17283601.585 10 0 60167 79200.00000 0 19266427.166 -7410343.907 14975978.810 10 0 60167 80100.00000 0 20944209.449 -7644593.535 12377276.379 10 0 60167 81000.00000 0 22268240.790 -7960206.208 9537939.834 10 0 60167 81900.00000 0 23211134.373 -8304058.821 6513125.119 10 0 60167 82800.00000 0 23758478.925 -8619854.416 3361626.436 10 0 60167 83700.00000 0 23909313.423 -8850714.654 144730.003 10 0 60167 84600.00000 0 23676052.834 -8941808.075 -3074983.534 10 0 60167 85500.00000 0 23083867.919 -8842901.790 -6234864.023 10 0 60168 0.00000 0 22169545.497 -8510727.244 -9273418.988 10 0 60168 900.00000 0 20979877.024 -7911058.282 -12131519.798 10 0 60168 1800.00000 0 19569645.336 -7020412.630 -14753558.230 10 0 60168 2700.00000 0 17999293.486 -5827302.943 -17088535.523 10 0 60168 3600.00000 0 16332375.818 -4332983.731 -19091058.001 10 0 60168 4500.00000 0 14632898.827 -2551661.519 -20722221.206 10 0 60168 5400.00000 0 12962664.206 -510158.512 -21950365.067 10 0 60168 6300.00000 0 11378725.944 1752956.821 -22751685.742 10 0 60168 7200.00000 0 9931068.089 4188736.377 -23110692.700 10 0 60168 8100.00000 0 8660600.117 6739659.609 -23020502.856 10 0 60168 9000.00000 0 7597553.068 9341806.240 -22482966.757 10 0 60168 9900.00000 0 6760342.571 11927304.346 -21508625.038 10 0 60168 10800.00000 0 6154945.031 14426952.237 -20116496.581 10 0 60168 11700.00000 0 5774811.649 16772905.572 -18333702.906 10 0 60168 12600.00000 0 5601322.396 18901318.339 -16194936.393 10 0 60168 13500.00000 0 5604759.434 20754828.462 -13741782.780 10 0 60168 14400.00000 0 5745757.772 22284785.219 -11021911.110 10 0 60168 15300.00000 0 5977171.018 23453126.363 -8088146.847 10 0 60168 16200.00000 0 6246272.743 24233827.514 -4997446.082 10 0 60168 17100.00000 0 6497199.975 24613864.126 -1809790.688 10 0 60168 18000.00000 0 6673535.212 24593646.685 1412974.142 10 0 60168 18900.00000 0 6720917.658 24186911.768 4608337.421 10 0 60168 19800.00000 0 6589573.150 23420074.274 7714331.799 10 0 60168 20700.00000 0 6236655.796 22331068.604 10670731.429 10 0 60168 21600.00000 0 5628302.285 20967727.783 13420215.255 10 0 60168 22500.00000 0 4741311.900 19385768.718 15909473.417 10 0 60168 23400.00000 0 3564380.991 17646467.980 18090235.688 10 0 60168 24300.00000 0 2098839.266 15814125.225 19920202.533 10 0 60168 25200.00000 0 358855.972 13953419.921 21363861.307 10 0 60168 26100.00000 0 -1628893.927 12126771.336 22393172.330 10 0 60168 27000.00000 0 -3826091.113 10391811.348 22988112.072 10 0 60168 27900.00000 0 -6184126.580 8799074.868 23137063.237 10 0 60168 28800.00000 0 -8645894.850 7390003.561 22837044.345 10 0 60168 29700.00000 0 -11147952.866 6195345.582 22093774.150 10 0 60168 30600.00000 0 -13622956.342 5234017.628 20921569.256 10 0 60168 31500.00000 0 -16002273.602 4512476.549 19343076.149 10 0 60168 32400.00000 0 -18218669.217 4024626.579 17388841.942 10 0 60168 33300.00000 0 -20208946.414 3752266.016 15096731.106 10 0 60168 34200.00000 0 -21916438.388 3666054.524 12511198.490 10 0 60168 35100.00000 0 -23293244.489 3726960.365 9682431.846 10 0 60168 36000.00000 0 -24302117.460 3888126.416 6665379.823 10 0 60168 36900.00000 0 -24917922.134 4097075.897 3518684.029 10 0 60168 37800.00000 0 -25128603.785 4298164.053 303535.932 10 0 60168 38700.00000 0 -24935624.907 4435171.240 -2917518.776 10 0 60168 39600.00000 0 -24353851.574 4453926.571 -6081804.355 10 0 60168 40500.00000 0 -23410893.994 4304849.736 -9127742.957 10 0 60168 41400.00000 0 -22145929.053 3945301.950 -11996061.434 10 0 60168 42300.00000 0 -20608054.751 3341645.082 -14630952.432 10 0 60168 43200.00000 0 -18854246.331 2470920.487 -16981166.330 10 0 60168 44100.00000 0 -16947000.700 1322075.321 -19001012.143 10 0 60168 45000.00000 0 -14951768.806 -103316.463 -20651247.558 10 0 60168 45900.00000 0 -12934284.308 -1790869.755 -21899840.785 10 0 60168 46800.00000 0 -10957900.873 -3713749.084 -22722589.708 10 0 60168 47700.00000 0 -9081049.656 -5833559.998 -23103586.778 10 0 60168 48600.00000 0 -7354923.048 -8101734.216 -23035521.289 10 0 60168 49500.00000 0 -5821480.807 -10461351.046 -22519813.887 10 0 60168 50400.00000 0 -4511860.911 -12849319.377 -21566581.352 10 0 60168 51300.00000 0 -3445260.196 -15198829.609 -20194432.959 10 0 60168 52200.00000 0 -2628330.002 -17441973.697 -18430102.778 10 0 60168 53100.00000 0 -2055110.479 -19512424.547 -16307925.369 10 0 60168 54000.00000 0 -1707504.567 -21348063.551 -13869165.179 10 0 60168 54900.00000 0 -1556270.159 -22893447.243 -11161212.690 10 0 60168 55800.00000 0 -1562487.293 -24102010.713 -8236662.910 10 0 60168 56700.00000 0 -1679437.420 -24937916.355 -5152294.022 10 0 60168 57600.00000 0 -1854814.541 -25377471.346 -1967965.953 10 0 60168 58500.00000 0 -2033174.249 -25410055.131 1254539.763 10 0 60168 59400.00000 0 -2158516.726 -25038518.733 4452716.339 10 0 60168 60300.00000 0 -2176894.307 -24279039.668 7564541.136 10 0 60168 61200.00000 0 -2038933.217 -23160438.984 10529674.679 10 0 60168 62100.00000 0 -1702162.821 -21722989.354 13290626.193 10 0 60168 63000.00000 0 -1133053.900 -20016764.215 15793863.342 10 0 60168 63900.00000 0 -308679.681 -18099597.033 17990844.987 10 0 60168 64800.00000 0 782070.822 -16034735.724 19838957.479 10 0 60168 65700.00000 0 2137778.926 -13888289.764 21302336.899 10 0 60168 66600.00000 0 3744312.841 -11726575.926 22352561.876 10 0 60168 67500.00000 0 5575183.674 -9613472.568 22969204.059 10 0 60168 68400.00000 0 7592427.544 -7607891.892 23140225.963 10 0 60168 69300.00000 0 9747978.627 -5761474.666 22862218.561 10 0 60168 70200.00000 0 11985477.632 -4116602.647 22140473.924 10 0 60168 71100.00000 0 14242442.020 -2704810.840 20988891.012 10 0 60168 72000.00000 0 16452709.011 -1545665.272 19429715.774 10 0 60168 72900.00000 0 18549050.797 -646152.716 17493119.662 10 0 60168 73800.00000 0 20465853.778 -607.564 15216623.695 10 0 60168 74700.00000 0 22141750.414 408821.282 12644378.220 10 0 60168 75600.00000 0 23522093.742 611183.368 9826311.482 10 0 60168 76500.00000 0 24561170.702 645261.258 6817162.790 10 0 60168 77400.00000 0 25224060.861 557688.888 3675418.807 10 0 60168 78300.00000 0 25488061.772 400733.736 462173.612 10 0 60168 79200.00000 0 25343620.243 229837.361 -2760064.914 10 0 60168 80100.00000 0 24794729.576 101019.414 -5928598.424 10 0 60168 81000.00000 0 23858775.514 68256.271 -8981766.441 10 0 60168 81900.00000 0 22565837.026 180946.623 -11860154.768 10 0 60168 82800.00000 0 20957471.326 481572.756 -14507759.392 10 0 60168 83700.00000 0 19085034.419 1003657.820 -16873082.350 10 0 60168 84600.00000 0 17007608.171 1770106.729 -18910137.615 10 0 60168 85500.00000 0 14789621.403 2792001.792 -20579347.022 99